Fort Eustis, VA

6:44 PM EST on December 15, 2019 (GMT -0500)
Felker Army Air Field

Weather History for KFAF - November, 2019

Change the Weather History Date:

Tuesday, November 19, 2019

  Actual Average Record
Temperature  
Mean Temperature 46 °F -  
Max Temperature 47 °F 58 °F 75 °F (2016)
Min Temperature 43 °F 40 °F 26 °F (2014)
Degree Days  
Heating Degree Days 20    
Moisture  
Dew Point 42 °F    
Average Humidity 87    
Maximum Humidity 93    
Minimum Humidity 81    
Precipitation  
Precipitation 0.00 in - - ()
Sea Level Pressure  
Sea Level Pressure 29.83 in    
Wind  
Wind Speed 3 mph ()    
Max Wind Speed 8 mph    
Max Gust Speed -    
Visibility 10.0 miles    
Events      
Averages and records for this station are not official NWS values.
T = Trace of Precipitation, MM = Missing Value Source: Averaged Metar Reports

Daily Weather History Graph

Daily Weather History Graph

Search for Another Location

Airport or City:

Astronomy

Nov. 19, 2019 Rise Set
Actual Time 6:49 AM EST 4:54 PM EST
Civil Twilight 6:21 AM EST 5:22 PM EST
Nautical Twilight 5:49 AM EST 5:53 PM EST
Astronomical Twilight 5:18 AM EST 6:24 PM EST
Moon 11:45 PM EST (11/19) 12:59 PM EST (11/19)
Length of Visible Light 11h 00m
Length of Day
10h 04m
Waning Gibbous, 52% of the Moon is Illuminated
Nov 19
Waning Gibbous
Nov 19
Last Quarter
Nov 26
New
Dec 4
First Quarter
Dec 12
Full

Hourly Weather History & Observations

Time (EST) Temp. Windchill Dew Point Humidity Pressure Visibility Wind Dir Wind Speed Gust Speed Precip Events Conditions
12:06 AM 46.4 °F 43.5 °F 42.8 °F 87% 29.78 in 10.0 mi SSW 5.8 mph - N/A   Overcast
12:56 AM 45.9 °F 44.6 °F 43.2 °F 90% 29.79 in 10.0 mi West 3.5 mph - N/A   Overcast
1:56 AM 46.0 °F - 43.3 °F 90% 29.79 in 10.0 mi Calm Calm - N/A   Overcast
2:56 AM 46.2 °F 43.3 °F 43.5 °F 90% 29.78 in 10.0 mi WSW 5.8 mph - N/A   Overcast
3:06 AM 46.4 °F 43.5 °F 42.8 °F 87% 29.78 in 10.0 mi West 5.8 mph - N/A   Overcast
3:16 AM 46.4 °F 45.2 °F 44.6 °F 93% 29.78 in 10.0 mi West 3.5 mph - N/A   Overcast
3:56 AM 46.6 °F - 43.9 °F 90% 29.79 in 10.0 mi Calm Calm - N/A   Overcast
4:26 AM 46.4 °F 44.3 °F 44.6 °F 93% 29.79 in 10.0 mi WNW 4.6 mph - N/A   Overcast
4:56 AM 46.2 °F 43.3 °F 43.5 °F 90% 29.79 in 10.0 mi West 5.8 mph - N/A   Overcast
5:56 AM 45.9 °F 43.6 °F 43.2 °F 90% 29.80 in 10.0 mi West 4.6 mph - N/A   Overcast
6:56 AM 45.5 °F - 42.4 °F 89% 29.83 in 10.0 mi Calm Calm - N/A   Overcast
7:36 AM 46.4 °F 44.3 °F 42.8 °F 87% 29.85 in 10.0 mi WSW 4.6 mph - N/A   Overcast
8:56 AM 45.3 °F 43.0 °F 41.9 °F 88% 29.86 in 10.0 mi West 4.6 mph - N/A   Overcast
9:26 AM 44.6 °F 42.2 °F 41.0 °F 87% 29.87 in 10.0 mi WNW 4.6 mph - N/A   Overcast
9:56 AM 45.1 °F 42.8 °F 41.7 °F 88% 29.87 in 10.0 mi West 4.6 mph - N/A   Overcast
10:56 AM 45.0 °F 41.8 °F 41.5 °F 88% 29.86 in 10.0 mi WNW 5.8 mph - N/A   Overcast
11:46 AM 44.6 °F 42.2 °F 41.0 °F 87% 29.84 in 10.0 mi WNW 4.6 mph - N/A   Overcast
11:56 AM 45.0 °F 40.6 °F 41.4 °F 87% 29.84 in 10.0 mi WNW 8.1 mph - N/A   Overcast
12:46 PM 44.6 °F 40.7 °F 41.0 °F 87% 29.83 in 10.0 mi NW 6.9 mph - N/A   Overcast
12:56 PM 45.3 °F 43.0 °F 41.7 °F 87% 29.83 in 10.0 mi NW 4.6 mph - N/A   Overcast
1:26 PM 46.4 °F 44.3 °F 41.0 °F 81% 29.83 in 10.0 mi NW 4.6 mph - N/A   Overcast
1:56 PM 45.9 °F 44.6 °F 41.5 °F 85% 29.82 in 10.0 mi NW 3.5 mph - N/A   Overcast
2:56 PM 47.3 °F - 42.1 °F 82% 29.82 in 10.0 mi Calm Calm - N/A   Overcast
3:06 PM 46.4 °F 45.2 °F 42.8 °F 87% 29.82 in 10.0 mi West 3.5 mph - N/A   Overcast
3:56 PM 46.4 °F 44.3 °F 41.0 °F 81% 29.83 in 10.0 mi South 4.6 mph - N/A   Mostly Cloudy
4:56 PM 46.2 °F - 41.4 °F 83% 29.85 in 10.0 mi Calm Calm - N/A   Overcast
5:56 PM 45.7 °F - 41.2 °F 84% 29.86 in 10.0 mi Calm Calm - N/A   Overcast
6:56 PM 45.7 °F - 41.4 °F 85% 29.86 in 10.0 mi Calm Calm - N/A   Overcast
7:56 PM 45.3 °F - 41.0 °F 85% 29.87 in 10.0 mi Calm Calm - N/A   Overcast
8:56 PM 45.0 °F - 41.0 °F 86% 29.88 in 10.0 mi Calm Calm - N/A   Partly Cloudy
9:56 PM 44.6 °F - 41.0 °F 87% 29.88 in 10.0 mi Calm Calm - N/A   Overcast
10:56 PM 44.2 °F - 40.6 °F 87% 29.88 in 10.0 mi Calm Calm - N/A   Overcast
11:56 PM 43.5 °F - 40.3 °F 88% 29.88 in 10.0 mi Calm Calm - N/A   Overcast